,,PA_Meas_PMT16A,,PR_Meas_QMR101_102,,RH_Meas_QMH101,,SR_Meas_QMS101,,TA_Meas_QMH101,,GenWind,,GenWind,
time,status,PA,status,PR,status,RH,status,SR,status,TA,status,DirAvg,status,SpdAvg,
2015-02-22, 07:33:04,VALID,918.409,VALID,0,VALID,94.1568,VALID,68.44,VALID,18.0665,VALID,131,VALID,0,
2015-02-22, 07:34:04,VALID,918.412,VALID,0,VALID,94.0653,VALID,68.44,VALID,18.0665,VALID,131,VALID,0.902734,
2015-02-22, 07:35:04,VALID,918.416,VALID,0,VALID,93.9815,VALID,69.2995,VALID,18.0846,VALID,131,VALID,1.05156,
2015-02-22, 07:36:04,VALID,918.421,VALID,0,VALID,93.8366,VALID,70.8037,VALID,18.1041,VALID,131,VALID,0.78125,
2015-02-22, 07:37:04,VALID,918.429,VALID,0,VALID,93.4173,VALID,74.779,VALID,18.1431,VALID,131,VALID,0.979688,
2015-02-22, 07:38:04,VALID,918.417,VALID,0,VALID,93.0438,VALID,78.0023,VALID,18.1626,VALID,127,VALID,1.18086,
2015-02-22, 07:39:04,VALID,918.447,VALID,0,VALID,92.6397,VALID,80.4734,VALID,18.2211,VALID,130,VALID,1.04805,
2015-02-22, 07:40:04,VALID,918.47,VALID,0,VALID,92.655,VALID,76.2832,VALID,18.2601,VALID,127,VALID,0.941406,
2015-02-22, 07:41:04,VALID,918.497,VALID,0,VALID,92.6855,VALID,78.1097,VALID,18.338,VALID,127,VALID,0.949219,
2015-02-22, 07:42:04,VALID,918.476,VALID,0,VALID,92.7617,VALID,83.1595,VALID,18.3575,VALID,112,VALID,0.783594,
2015-02-22, 07:43:04,VALID,918.483,VALID,0,VALID,92.8837,VALID,87.0273,VALID,18.3951,VALID,117,VALID,0.951953,
2015-02-22, 07:44:04,VALID,918.489,VALID,0,VALID,93.2115,VALID,92.2919,VALID,18.455,VALID,116,VALID,0.758594,
2015-02-22, 07:45:04,VALID,918.488,VALID,0,VALID,93.4631,VALID,104.11,VALID,18.5135,VALID,116,VALID,0.829687,
2015-02-22, 07:46:04,VALID,918.489,VALID,0,VALID,93.6842,VALID,109.59,VALID,18.572,VALID,116,VALID,0,
2015-02-22, 07:47:04,VALID,918.517,VALID,0,VALID,93.8747,VALID,112.169,VALID,18.6304,VALID,116,VALID,0,
2015-02-22, 07:48:04,VALID,918.46,VALID,0,VALID,93.7909,VALID,111.416,VALID,18.6889,VALID,116,VALID,0,
2015-02-22, 07:49:04,VALID,918.467,VALID,0,VALID,93.9205,VALID,122.59,VALID,18.7474,VALID,116,VALID,0,
2015-02-22, 07:50:04,VALID,918.473,VALID,0,VALID,94.0043,VALID,132.475,VALID,18.8449,VALID,116,VALID,0,
2015-02-22, 07:51:04,VALID,918.507,VALID,0,VALID,93.181,VALID,138.384,VALID,18.9034,VALID,115,VALID,0,
2015-02-22, 07:52:04,VALID,918.478,VALID,0,VALID,92.19,VALID,163.955,VALID,18.9424,VALID,115,VALID,0,
2015-02-22, 07:53:04,VALID,918.54,VALID,0,VALID,92.2662,VALID,156.219,VALID,19.0189,VALID,115,VALID,0,
2015-02-22, 07:54:04,VALID,918.541,VALID,0,VALID,92.3043,VALID,136.343,VALID,19.1373,VALID,115,VALID,0,
2015-02-22, 07:55:04,VALID,918.53,VALID,0,VALID,92.5102,VALID,132.367,VALID,19.2543,VALID,115,VALID,0,
2015-02-22, 07:56:04,VALID,918.564,VALID,0,VALID,92.1442,VALID,145.798,VALID,19.3713,VALID,115,VALID,0,
2015-02-22, 07:57:04,VALID,918.575,VALID,0,VALID,90.9855,VALID,221.221,VALID,19.4298,VALID,120,VALID,0,
2015-02-22, 07:58:04,VALID,918.581,VALID,0,VALID,90.2155,VALID,256.032,VALID,19.5273,VALID,119,VALID,0,
2015-02-22, 07:59:04,VALID,918.583,VALID,0,VALID,90.063,VALID,258.718,VALID,19.6833,VALID,119,VALID,0,
2015-02-22, 08:00:04,VALID,918.591,VALID,0,VALID,89.2778,VALID,175.022,VALID,19.8183,VALID,112,VALID,0,
2015-02-22, 08:01:04,VALID,918.62,VALID,0,VALID,88.4621,VALID,211.122,VALID,19.8978,VALID,114,VALID,0,
2015-02-22, 08:02:04,VALID,918.656,VALID,0,VALID,88.7899,VALID,253.669,VALID,20.0133,VALID,87,VALID,0,
2015-02-22, 08:03:04,VALID,918.662,VALID,0,VALID,87.8904,VALID,277.628,VALID,20.1123,VALID,96,VALID,0,
2015-02-22, 08:04:04,VALID,918.688,VALID,0,VALID,87.4634,VALID,293.637,VALID,20.2489,VALID,88,VALID,0,
2015-02-22, 08:05:04,VALID,918.717,VALID,0,VALID,85.8168,VALID,301.05,VALID,20.3269,VALID,88,VALID,0,
2015-02-22, 08:06:04,VALID,918.702,VALID,0,VALID,86.0455,VALID,301.265,VALID,20.4634,VALID,101,VALID,0,
2015-02-22, 08:07:04,VALID,918.738,VALID,0,VALID,84.7114,VALID,305.992,VALID,20.5999,VALID,106,VALID,0,
2015-02-22, 08:08:04,VALID,918.748,VALID,0,VALID,85.4051,VALID,308.464,VALID,20.834,VALID,80,VALID,0,
2015-02-22, 08:09:04,VALID,918.76,VALID,0,VALID,82.9046,VALID,304.703,VALID,21.0291,VALID,119,VALID,0,
2015-02-22, 08:10:04,VALID,918.769,VALID,0,VALID,80.7701,VALID,311.794,VALID,21.0275,VALID,119,VALID,1.19219,
2015-02-22, 08:11:04,VALID,918.803,VALID,0,VALID,80.8692,VALID,318.241,VALID,21.0275,VALID,117,VALID,1.09219,
2015-02-22, 08:12:04,VALID,918.819,VALID,0,VALID,82.1271,VALID,324.043,VALID,21.125,VALID,118,VALID,0.719141,
2015-02-22, 08:13:04,VALID,918.836,VALID,0,VALID,79.0777,VALID,321.786,VALID,21.2031,VALID,115,VALID,1.13398,
2015-02-22, 08:14:04,VALID,918.831,VALID,0,VALID,80.4957,VALID,322.646,VALID,21.3396,VALID,115,VALID,0.532812,
2015-02-22, 08:15:04,VALID,918.822,VALID,0,VALID,79.6723,VALID,316.092,VALID,21.5932,VALID,115,VALID,0.532812,
2015-02-22, 08:16:04,VALID,918.837,VALID,0,VALID,78.6737,VALID,314.373,VALID,21.8859,VALID,115,VALID,0.0207031,
2015-02-22, 08:17:04,VALID,918.831,VALID,0,VALID,77.1185,VALID,317.166,VALID,22.2371,VALID,81,VALID,0.647266,
2015-02-22, 08:18:04,VALID,918.866,VALID,0,VALID,75.7234,VALID,318.67,VALID,22.4696,VALID,81,VALID,1.0043,
2015-02-22, 08:19:04,VALID,918.862,VALID,0,VALID,76.0359,VALID,324.257,VALID,22.5689,VALID,81,VALID,1.01406,
2015-02-22, 08:20:04,VALID,918.892,VALID,0,VALID,75.4794,VALID,327.051,VALID,22.5086,VALID,81,VALID,0.73125,
2015-02-22, 08:21:04,VALID,918.901,VALID,0,VALID,75.9673,VALID,329.307,VALID,22.4306,VALID,81,VALID,0,
2015-02-22, 08:22:04,VALID,918.913,VALID,0,VALID,76.3866,VALID,330.274,VALID,22.4891,VALID,81,VALID,0,
2015-02-22, 08:23:04,VALID,918.929,VALID,0,VALID,76.5848,VALID,324.687,VALID,22.6062,VALID,81,VALID,0,
2015-02-22, 08:24:04,VALID,918.946,VALID,0,VALID,75.5633,VALID,321.679,VALID,22.725,VALID,81,VALID,0,
2015-02-22, 08:25:04,VALID,918.936,VALID,0,VALID,75.0297,VALID,325.117,VALID,22.8014,VALID,73,VALID,0,
2015-02-22, 08:26:04,VALID,918.961,VALID,0,VALID,72.4606,VALID,325.762,VALID,22.8794,VALID,41,VALID,0,
2015-02-22, 08:27:04,VALID,918.957,VALID,0,VALID,71.9041,VALID,332.745,VALID,22.8404,VALID,41,VALID,0,
2015-02-22, 08:28:04,VALID,918.962,VALID,0,VALID,72.3767,VALID,335.539,VALID,22.7996,VALID,41,VALID,0,
2015-02-22, 08:29:04,VALID,918.982,VALID,0,VALID,73.4287,VALID,334.035,VALID,22.9185,VALID,41,VALID,0,
2015-02-22, 08:30:04,VALID,919.013,VALID,0,VALID,73.0247,VALID,337.043,VALID,23.1119,VALID,62,VALID,0,
2015-02-22, 08:31:04,VALID,918.99,VALID,0,VALID,72.3538,VALID,338.977,VALID,23.2893,VALID,62,VALID,0,
2015-02-22, 08:32:04,VALID,919.028,VALID,0,VALID,72.0184,VALID,344.456,VALID,23.5821,VALID,62,VALID,0,
2015-02-22, 08:33:04,VALID,919.034,VALID,0,VALID,70.6996,VALID,347.035,VALID,23.8163,VALID,47,VALID,0,
2015-02-22, 08:34:04,VALID,919.054,VALID,0,VALID,68.2067,VALID,357.349,VALID,23.8358,VALID,39,VALID,0,
2015-02-22, 08:35:04,VALID,919.094,VALID,0,VALID,69.5256,VALID,361.862,VALID,23.795,VALID,10,VALID,0.167969,
2015-02-22, 08:36:04,VALID,919.139,VALID,0,VALID,68.6107,VALID,364.333,VALID,23.5998,VALID,45,VALID,0,
2015-02-22, 08:37:04,VALID,919.141,VALID,0,VALID,69.1673,VALID,366.697,VALID,23.4064,VALID,30,VALID,0,
2015-02-22, 08:38:04,VALID,919.139,VALID,0,VALID,69.2206,VALID,368.845,VALID,23.3656,VALID,45,VALID,0.01875,
2015-02-22, 08:39:04,VALID,919.178,VALID,0,VALID,69.5484,VALID,374.325,VALID,23.4241,VALID,46,VALID,0,
2015-02-22, 08:40:04,VALID,919.147,VALID,0,VALID,68.6565,VALID,379.697,VALID,23.4827,VALID,46,VALID,0,
2015-02-22, 08:41:04,VALID,919.168,VALID,0,VALID,69.1673,VALID,381.738,VALID,23.4827,VALID,43,VALID,0,
2015-02-22, 08:42:04,VALID,919.149,VALID,0,VALID,69.5256,VALID,382.92,VALID,23.5785,VALID,34,VALID,0,
2015-02-22, 08:43:04,VALID,919.166,VALID,0,VALID,65.3403,VALID,384.639,VALID,23.795,VALID,4,VALID,0,
2015-02-22, 08:44:04,VALID,919.197,VALID,0,VALID,63.3963,VALID,384.21,VALID,24.0701,VALID,6,VALID,0,
2015-02-22, 08:45:04,VALID,919.203,VALID,0,VALID,63.2515,VALID,385.606,VALID,24.1287,VALID,19,VALID,0,
2015-02-22, 08:46:04,VALID,919.215,VALID,0,VALID,64.8448,VALID,385.929,VALID,24.1659,VALID,13,VALID,0,
2015-02-22, 08:47:04,VALID,919.236,VALID,0,VALID,63.5488,VALID,395.598,VALID,24.2245,VALID,352,VALID,0,
2015-02-22, 08:48:04,VALID,919.224,VALID,0,VALID,65.3022,VALID,404.194,VALID,24.1073,VALID,352,VALID,0,
2015-02-22, 08:49:04,VALID,919.251,VALID,0,VALID,64.7457,VALID,408.491,VALID,24.0292,VALID,20,VALID,0,
2015-02-22, 08:50:04,VALID,919.263,VALID,0,VALID,64.6542,VALID,408.706,VALID,24.1287,VALID,37,VALID,0,
2015-02-22, 08:51:04,VALID,919.237,VALID,0,VALID,62.9008,VALID,412.252,VALID,24.3416,VALID,37,VALID,0,
2015-02-22, 08:52:04,VALID,919.293,VALID,0,VALID,63.9147,VALID,413.971,VALID,24.654,VALID,34,VALID,0,
2015-02-22, 08:53:04,VALID,919.233,VALID,0,VALID,63.9986,VALID,413.971,VALID,24.6345,VALID,316,VALID,0,
2015-02-22, 08:54:04,VALID,919.239,VALID,0,VALID,62.0851,VALID,416.549,VALID,24.4392,VALID,315,VALID,0,
2015-02-22, 08:55:04,VALID,919.257,VALID,0,VALID,60.1945,VALID,422.351,VALID,24.3416,VALID,328,VALID,0,
2015-02-22, 08:56:04,VALID,919.231,VALID,0,VALID,60.4994,VALID,427.831,VALID,24.3026,VALID,10,VALID,0,
2015-02-22, 08:57:04,VALID,919.235,VALID,0,VALID,61.9479,VALID,429.335,VALID,24.3398,VALID,10,VALID,0.544531,
2015-02-22, 08:58:04,VALID,919.256,VALID,0,VALID,62.6111,VALID,426.004,VALID,24.3202,VALID,43,VALID,0.867578,
2015-02-22, 08:59:04,VALID,919.256,VALID,0,VALID,60.8044,VALID,428.905,VALID,24.3398,VALID,16,VALID,1.16836,
2015-02-22, 09:00:04,VALID,919.279,VALID,0,VALID,60.2707,VALID,427.293,VALID,24.2031,VALID,25,VALID,0,
2015-02-22, 09:01:04,VALID,919.292,VALID,0,VALID,59.9734,VALID,428.046,VALID,24.3026,VALID,27,VALID,0,
2015-02-22, 09:02:04,VALID,919.316,VALID,0,VALID,59.9505,VALID,430.087,VALID,24.3593,VALID,22,VALID,0,
2015-02-22, 09:03:04,VALID,919.317,VALID,0,VALID,60.5604,VALID,436.856,VALID,24.3611,VALID,13,VALID,0,
2015-02-22, 09:04:04,VALID,919.329,VALID,0,VALID,61.7954,VALID,439.972,VALID,24.4374,VALID,13,VALID,0,
2015-02-22, 09:05:04,VALID,919.31,VALID,0,VALID,61.5057,VALID,438.252,VALID,24.5935,VALID,13,VALID,0,
2015-02-22, 09:06:04,VALID,919.303,VALID,0,VALID,61.0636,VALID,434.814,VALID,24.5545,VALID,13,VALID,0,
2015-02-22, 09:07:04,VALID,919.303,VALID,0,VALID,59.6837,VALID,446.203,VALID,24.4392,VALID,13,VALID,0,
2015-02-22, 09:08:04,VALID,919.308,VALID,0,VALID,61.9174,VALID,452.542,VALID,24.086,VALID,354,VALID,0,
2015-02-22, 09:09:04,VALID,919.294,VALID,0,VALID,63.1219,VALID,457.377,VALID,23.8713,VALID,303,VALID,0,
2015-02-22, 09:10:04,VALID,919.308,VALID,0,VALID,62.9237,VALID,460.923,VALID,23.9103,VALID,303,VALID,0,
2015-02-22, 09:11:04,VALID,919.333,VALID,0,VALID,62.6111,VALID,469.303,VALID,24.0469,VALID,303,VALID,0,
2015-02-22, 09:12:04,VALID,919.313,VALID,0,VALID,62.2147,VALID,471.022,VALID,24.1445,VALID,303,VALID,0,
2015-02-22, 09:13:04,VALID,919.353,VALID,0,VALID,61.6201,VALID,478.328,VALID,24.1445,VALID,303,VALID,0,
2015-02-22, 09:14:04,VALID,919.342,VALID,0,VALID,61.3228,VALID,481.766,VALID,24.0469,VALID,305,VALID,0,
2015-02-22, 09:15:04,VALID,919.359,VALID,0,VALID,61.803,VALID,479.295,VALID,23.9689,VALID,333,VALID,0,
2015-02-22, 09:16:04,VALID,919.359,VALID,0,VALID,61.6734,VALID,490.254,VALID,23.8127,VALID,303,VALID,0,
2015-02-22, 09:17:04,INVALID - VALUE NOT AVAILABLE,0,VALID,0,VALID,63.3201,VALID,494.659,VALID,23.5803,INVALID,360,INVALID,0,
2015-02-22, 09:18:04,VALID,919.323,VALID,0,VALID,63.6098,VALID,497.345,VALID,23.559,VALID,303,VALID,0,
2015-02-22, 09:19:04,VALID,919.32,VALID,0,VALID,62.3672,VALID,493.047,VALID,23.6956,VALID,306,VALID,0,
2015-02-22, 09:20:04,VALID,919.302,VALID,0,VALID,62.6035,VALID,505.725,VALID,23.834,VALID,301,VALID,0,
2015-02-22, 09:21:04,VALID,919.307,VALID,0,VALID,59.7905,VALID,510.453,VALID,23.8908,VALID,309,VALID,0,
2015-02-22, 09:22:04,VALID,919.309,VALID,0,VALID,59.173,VALID,509.271,VALID,23.8145,VALID,310,VALID,0,
2015-02-22, 09:23:04,VALID,919.294,VALID,0,VALID,60.4156,VALID,504.759,VALID,23.7755,VALID,304,VALID,0,
2015-02-22, 09:24:04,VALID,919.286,VALID,0,VALID,58.868,VALID,501.858,VALID,23.9103,VALID,257,VALID,0,
2015-02-22, 09:25:04,VALID,919.265,VALID,0,VALID,59.3026,VALID,513.569,VALID,23.9884,VALID,271,VALID,0,
2015-02-22, 09:26:04,VALID,919.297,VALID,0,VALID,60.5604,VALID,522.594,VALID,23.9884,VALID,289,VALID,0.214062,
2015-02-22, 09:27:04,VALID,919.269,VALID,0,VALID,61.2846,VALID,522.057,VALID,23.9493,VALID,291,VALID,0,
2015-02-22, 09:28:04,VALID,919.244,VALID,0,VALID,59.4855,VALID,520.445,VALID,24.1641,VALID,311,VALID,0,
2015-02-22, 09:29:04,VALID,919.25,VALID,0,VALID,55.7195,VALID,516.04,VALID,24.3202,VALID,245,VALID,0,
2015-02-22, 09:30:04,VALID,919.259,VALID,0,VALID,59.5084,VALID,515.288,VALID,24.3983,VALID,273,VALID,0,
2015-02-22, 09:31:04,VALID,919.237,VALID,0,VALID,58.0218,VALID,520.875,VALID,24.4569,VALID,301,VALID,0,
2015-02-22, 09:32:04,VALID,919.251,VALID,0,VALID,59.5008,VALID,523.99,VALID,24.5935,VALID,301,VALID,0,
2015-02-22, 09:33:04,VALID,919.255,VALID,0,VALID,58.6241,VALID,526.784,VALID,24.5917,VALID,302,VALID,0,
2015-02-22, 09:34:04,VALID,919.279,VALID,0,VALID,58.3725,VALID,531.404,VALID,24.4569,VALID,299,VALID,0.495703,
2015-02-22, 09:35:04,VALID,919.273,VALID,0,VALID,58.586,VALID,532.693,VALID,24.4569,VALID,290,VALID,0,
2015-02-22, 09:36:04,VALID,919.29,VALID,0,VALID,56.9088,VALID,530.544,VALID,24.535,VALID,290,VALID,0,
2015-02-22, 09:37:04,VALID,919.283,VALID,0,VALID,56.8707,VALID,531.189,VALID,0,0,0,0,0,
